Kezdőlap
METAR-TAF:

METAR-TAF

Repülőterek :

Erie, Colorado, Amerikai Egyesült Államok

földrajzi szélesség: 40-00-37N, földrajzi hosszúság: 105-02-53W, magasság: 1564 m

Jelenlegi meteorológiai megfigyelések

A jelentés 25 perccel ezelõtt készült, 07:35 UTC
Szélcsend
Hőmérséklet 18°C
Páratartalom 45%
Légköri nyomás 1017 hPa
Látótávolság: 16.1 km
Derült ég

METAR: KEIK 130735Z AUTO 00000KT 10SM CLR 18/06 A3003 RMK AO2 T01810063

Idő: 02:00 (08:00 UTC)


TAF: hiányzik

Meteorológiai megfigyelések és előrejelzések több, mint 4000 repülőtéren (METAR és TAF jelentéseket).

A térképen piros és sárga pontok jelzik az elérhető meteorológiai állomásokat.

Mozgassa az egeret a pont fölött, hogy megjelenjen az állomás neve.

Azután kattintson az időjárási megfigyelések és előrejelzések megtekintéséhez.

A térkép megváltoztatása: kattintson a fekete keresztel jelölt zöld gombra ráközelítéshez, a vonallal jelölt zöld gombra távolításhoz, vagy a zöld nyilakra a szomszédos térképek eléréséhez.


METAR-TAF: